Hlavní strana
METAR-TAF:

METAR-TAF

Letiště :

Gatlinburg, Tennessee, Spojené státy americké

zeměpisná šířka: 35-51-28N, zeměpisná délka: 083-31-43W, výška: 309 m

Aktuální stav počasí

Zpráva byla vytvořena před 32 minutami, v 11:55 UTC
Bezvětří
Teplota 21°C
Vlhkost vzduchu 83%
Tlak 1022 hPa
Viditelnost: 16.1 km
Skoro jasno ve výšce 6000 ft
Polojasno ve výšce 7500 ft

METAR: KGKT 261155Z AUTO 00000KT 10SM FEW060 SCT075 21/18 A3019 RMK A01

Čas: 07:27 (12:27 UTC)


TAF: chybějící

Stav a předpovědi počasí z více než 4 000 letišť (zprávy METAR a TAF).

Červené a žluté tečky na mapě představují dostupné meteorologické stanice.

Když kurzor umístíte na tečku, zobrazí se název stanice.

Pak kliknutím zobrazíte stav a předpověď počasí.

Chcete-li změnit mapu, kliknutím na zelené tlačítko se znaménkem +mapu přiblížíte, kliknutím na zelené tlačítko se znaménkem – mapu oddálíte a kliknutím na zelené šipky přejdete na sousední mapy.


METAR-TAF: